[[{"header":{"parameterUnit":"m.s-1","parameterCategory":1,"la1":30.2991,"la2":30.254,"lo1":-89.0895,"lo2":-89.0444,"dy":0.0017,"dx":0.0017,"nx":28,"ny":28,"refTime":"2024-06-26T21:00:00:Z","depth":0,"parameterNumber":2,"parameterNumberName":"U-component_of_WINDS"},"data":[0,0,0,0,0,0,0,0,0,0,0,0,0,0,0,0,0,0,0,0,0,0,0,0,0,0,0,0,0,0,0,0,0,0,0,0,0,0,0,0,0,0,0,0,0,0,0,0,0,0,0,0,0,0,0,0,0,0,5.4557,5.4558,0,5.4706,5.4708,5.4709,5.4705,5.4703,5.4701,5.4699,5.4853,5.4858,5.4864,0,0,0,0,0,0,0,0,0,0,0,0,0,5.4269,5.4274,5.4557,5.4559,5.456,5.4706,5.4708,5.471,5.4705,5.4703,5.47,5.4698,5.4851,5.4858,5.4865,0,0,0,0,0,0,0,0,0,0,0,0,0,5.4403,5.4276,5.4556,5.4576,5.4579,5.4705,5.4708,5.471,5.4706,5.4703,5.4699,5.4697,5.4848,5.4857,5.4866,5.4984,0,0,5.4894,5.4897,0,0,0,0,0,0,0,0,5.4396,5.4414,5.4571,5.4574,5.4578,5.4684,5.4663,5.4802,5.4706,5.4657,5.4699,5.4695,5.4799,5.4812,5.4847,5.4991,5.4997,5.4894,5.49,5.4904,5.4906,0,0,0,0,0,0,0,5.4386,5.4408,5.4616,5.4573,5.4578,5.4577,5.4593,5.4689,5.4744,5.4661,5.4662,5.4679,5.48,5.4838,5.485,5.5,5.4894,5.4902,5.4908,5.4911,5.5247,5.525,0,0,0,0,0,0,5.4373,5.44,5.4611,5.462,5.4477,5.4585,5.4602,5.4653,5.4743,5.4753,5.4682,5.4678,5.4824,5.484,5.4856,5.4998,5.4904,5.4912,5.4917,5.5244,5.5248,5.5252,0,0,0,0,0,0,5.4367,5.4392,5.4605,5.451,5.4537,5.4593,5.465,5.4658,5.4695,5.4758,5.4768,5.471,5.4822,5.4843,5.4952,5.5003,5.4916,5.4924,5.524,5.5245,5.525,5.5283,0,0,0,0,0,0,5.4358,5.439,5.4434,5.4511,5.4542,5.4698,5.4653,5.4663,5.471,5.4708,5.4787,5.4797,5.4821,5.4938,5.496,5.5014,5.4931,5.5235,5.5242,5.5248,5.5278,5.5289,5.5299,0,0,0,0,0,5.4348,5.4438,5.4437,5.4462,5.46,5.4701,5.4719,5.4744,5.4715,5.476,5.4801,5.4795,5.4995,5.4949,5.4974,5.5031,5.5232,5.524,5.5248,5.5273,5.5287,5.5298,0,0,0,0,0,0,5.4366,5.4449,5.4448,5.4565,5.4626,5.47,5.4758,5.4758,5.4829,5.4823,5.4853,5.4871,5.4979,5.5017,5.4965,5.515,5.5109,5.5123,5.512,5.5134,5.5144,5.5131,5.4939,0,0,0,0,0,5.4384,5.4459,5.4528,5.4625,5.4655,5.4702,5.4747,5.4762,5.4826,5.4851,5.49,5.4963,5.5039,5.5089,5.5164,5.5285,5.5301,5.5336,5.5347,5.5355,5.5365,5.543,5.5446,5.5278,5.5277,5.5277,0,0,5.4421,5.4476,5.4521,5.463,5.4679,5.4755,5.4723,5.4806,5.4864,5.4864,5.4968,5.5007,5.5079,5.5194,5.5247,5.5228,5.5416,5.5365,5.5371,5.5377,5.544,5.5456,5.547,5.5283,5.5282,5.5281,0,0,5.4528,5.4577,5.4663,5.4712,5.4787,5.4817,5.4838,5.4912,5.4937,5.5043,5.5044,5.5114,5.5246,5.5297,5.534,5.5467,5.5463,5.5491,5.5544,5.5607,5.562,5.5632,5.5675,5.569,5.5501,5.5502,5.5502,0,5.4564,5.468,5.4707,5.479,5.4837,5.4842,5.4928,5.4976,5.5071,5.5103,5.5082,5.5247,5.5296,5.5422,5.5453,5.5489,5.5512,5.548,5.5616,5.5628,5.564,5.5681,5.5697,5.5504,5.5504,5.5504,5.5503,0,5.472,5.48,5.4861,5.4951,5.5006,5.5091,5.5131,5.5183,5.5194,5.5226,5.5334,5.5394,5.5479,5.5511,5.5523,5.5639,5.5625,5.561,5.5569,5.5658,5.5697,5.5713,5.5508,5.5507,5.5506,5.5505,0,0,5.4839,5.4944,5.4966,5.5006,5.5089,5.5152,5.5238,5.5321,5.5364,5.5431,5.5502,5.5614,5.5601,5.565,5.5668,5.5724,5.5818,5.5702,5.5704,5.5718,5.5947,5.5955,5.5973,5.5817,5.5821,5.5823,5.594,0,5.4952,5.5101,5.5129,5.5259,5.5333,5.534,5.5414,5.5473,5.5507,5.5574,5.5612,5.569,5.5668,5.5697,5.5753,5.5794,5.5863,5.5787,5.5882,5.5886,5.586,5.5994,5.6003,5.611,5.5956,5.5958,5.596,0,5.5102,5.5171,5.5309,5.5381,5.5413,5.5479,5.5557,5.5623,5.569,5.5711,5.5766,5.5778,5.5866,5.5825,5.5947,5.5894,5.5936,5.5962,5.5967,5.5974,5.5925,5.6001,5.6145,5.6159,5.5985,5.5983,5.5981,0,5.5171,5.5299,5.5397,5.5433,5.5521,5.5566,5.5605,5.567,5.5718,5.5788,5.5819,5.5898,5.5941,5.6002,5.6035,5.6002,5.6154,5.6116,5.6172,5.6171,5.6201,5.6198,5.635,5.6234,5.6234,5.6233,5.6233,0,5.5292,5.5375,5.5429,5.549,5.5583,5.5615,5.5707,5.5745,5.5803,5.5871,5.5883,5.5946,5.5987,5.6057,5.6084,5.6179,5.62,5.6218,5.6223,5.6215,5.6212,5.624,5.6232,5.6238,5.6237,5.6236,5.6235,0,5.5383,5.5423,5.553,5.5605,5.5626,5.5691,5.5755,5.5814,5.5849,5.5934,5.5956,5.601,5.6093,5.6132,5.6235,5.6253,5.6361,5.6363,5.6337,5.6339,5.6392,5.6385,5.6564,5.6588,5.6459,5.646,5.6461,0,5.5456,5.552,5.5601,5.5647,5.5687,5.5761,5.581,5.5845,5.5896,5.5978,5.6027,5.611,5.6177,5.6309,5.6357,5.6436,5.6438,5.6496,5.645,5.6439,5.6436,5.643,5.6435,5.6503,5.6504,5.6505,5.6506,0,5.5579,5.5596,5.5666,5.5744,5.5802,5.5865,5.5927,5.5964,5.6008,5.6065,5.6149,5.6202,5.6307,5.6388,5.6471,5.6511,5.6515,5.652,5.6537,5.6527,5.6508,5.6516,5.6356,5.6515,5.6514,5.6514,5.6513,5.6513,5.5661,5.5718,5.5784,5.5861,5.5912,5.5969,5.6028,5.6069,5.614,5.6227,5.6244,5.6333,5.6399,5.651,5.6553,5.6624,5.661,5.6635,5.6641,5.6646,5.6647,5.65,5.6639,5.6639,5.6639,5.6639,5.6639,0,5.5782,5.5825,5.5897,5.5982,5.6044,5.6044,5.6113,5.6163,5.6241,5.6303,5.6369,5.6466,5.6545,5.6601,5.6682,5.6727,5.6731,5.6747,5.6742,5.6751,5.6655,5.6631,5.6742,5.6742,5.6742,5.6742,5.6742,5.6742,5.5852,5.5947,5.5972,5.6093,5.6135,5.6222,5.6261,5.6314,5.6363,5.6469,5.6535,5.6571,5.663,5.6715,5.6788,5.6803,5.6831,5.6846,5.686,5.6769,5.6758,5.6747,5.6724,5.6853,5.6853,5.6949,5.695,5.695]},{"header":{"parameterUnit":"m.s-1","parameterCategory":1,"la1":30.2991,"la2":30.254,"lo1":-89.0895,"lo2":-89.0444,"dy":0.0017,"dx":0.0017,"nx":28,"ny":28,"refTime":"2024-06-26T21:00:00:Z","depth":0,"parameterNumber":3,"parameterNumberName":"V-component_of_WINDS"},"data":[0,0,0,0,0,0,0,0,0,0,0,0,0,0,0,0,0,0,0,0,0,0,0,0,0,0,0,0,0,0,0,0,0,0,0,0,0,0,0,0,0,0,0,0,0,0,0,0,0,0,0,0,0,0,0,0,0,0,3.6485,3.6488,0,3.6741,3.6744,3.6747,3.6798,3.6796,3.6794,3.6792,3.7058,3.7066,3.7075,0,0,0,0,0,0,0,0,0,0,0,0,0,3.6043,3.605,3.6485,3.6488,3.6491,3.6741,3.6744,3.6748,3.6799,3.6796,3.6794,3.6792,3.7055,3.7065,3.7076,0,0,0,0,0,0,0,0,0,0,0,0,0,3.626,3.6053,3.6484,3.6547,3.6555,3.674,3.6744,3.6749,3.6799,3.6796,3.6793,3.679,3.7051,3.7064,3.7077,3.7219,0,0,3.7118,3.7124,0,0,0,0,0,0,0,0,3.6248,3.6276,3.6534,3.6543,3.6552,3.6735,3.6686,3.6907,3.68,3.6706,3.6792,3.6789,3.6953,3.6974,3.7029,3.7232,3.7243,3.7119,3.7128,3.7133,3.7137,0,0,0,0,0,0,0,3.6233,3.6266,3.6586,3.6538,3.6549,3.6563,3.659,3.6728,3.6843,3.6714,3.6719,3.6748,3.6957,3.7016,3.7035,3.7247,3.7119,3.7131,3.7139,3.7144,3.7581,3.7584,0,0,0,0,0,0,3.6206,3.6253,3.6578,3.6594,3.6389,3.6573,3.6604,3.6679,3.6842,3.6864,3.675,3.675,3.6994,3.702,3.7045,3.7222,3.7133,3.7146,3.7153,3.7577,3.7581,3.7585,0,0,0,0,0,0,3.6196,3.6235,3.6568,3.6425,3.6468,3.6584,3.6668,3.6686,3.6744,3.6869,3.689,3.6789,3.6993,3.7026,3.7176,3.7232,3.7152,3.7164,3.7573,3.7578,3.7583,3.7576,0,0,0,0,0,0,3.6184,3.6231,3.6285,3.6426,3.6476,3.6693,3.6671,3.6693,3.6767,3.6768,3.6911,3.6932,3.6993,3.7155,3.7189,3.7249,3.7174,3.7568,3.7575,3.7582,3.7572,3.7581,3.7588,0,0,0,0,0,3.6168,3.6273,3.6288,3.6327,3.6546,3.6696,3.6725,3.6793,3.6771,3.6827,3.6908,3.6927,3.722,3.717,3.7208,3.7273,3.7565,3.7573,3.7581,3.7569,3.7579,3.7588,0,0,0,0,0,0,3.6137,3.6293,3.631,3.6464,3.6567,3.6704,3.6777,3.6802,3.6913,3.691,3.699,3.7022,3.7167,3.7236,3.7177,3.742,3.7392,3.7408,3.7369,3.738,3.7388,3.7368,3.7185,0,0,0,0,0,3.6148,3.6256,3.6387,3.6511,3.6561,3.666,3.6728,3.6772,3.6881,3.6925,3.7016,3.7122,3.7239,3.7314,3.7428,3.7583,3.7615,3.7647,3.7654,3.7661,3.7673,3.7761,3.7776,3.7612,3.7612,3.7612,0,0,3.6172,3.6271,3.6334,3.6507,3.6591,3.6702,3.6696,3.6814,3.6897,3.6943,3.7089,3.716,3.7285,3.7437,3.751,3.7499,3.7726,3.7671,3.7675,3.7684,3.7771,3.7786,3.78,3.7617,3.7616,3.7615,0,0,3.6273,3.6358,3.647,3.6555,3.6683,3.6748,3.6775,3.691,3.6958,3.7107,3.7143,3.7245,3.7443,3.753,3.76,3.7735,3.7758,3.7771,3.7812,3.7897,3.791,3.7922,3.797,3.7986,3.7783,3.7783,3.7783,0,3.6286,3.6454,3.6525,3.6641,3.6717,3.6763,3.6878,3.6957,3.7115,3.7167,3.7153,3.7403,3.749,3.7664,3.7697,3.7753,3.7786,3.7754,3.7902,3.7915,3.7927,3.7973,3.7991,3.7784,3.7783,3.7783,3.7783,0,3.6465,3.6581,3.6657,3.6808,3.6892,3.7007,3.7096,3.7173,3.721,3.7277,3.7428,3.7534,3.767,3.7715,3.7753,3.7895,3.7885,3.7886,3.7859,3.7942,3.7987,3.8006,3.7784,3.7784,3.7784,3.7784,0,0,3.6551,3.6741,3.6767,3.6837,3.6982,3.7073,3.7191,3.7324,3.7388,3.7497,3.7598,3.7765,3.7767,3.7847,3.7895,3.7969,3.8069,3.7961,3.7966,3.7977,3.8233,3.8231,3.825,3.8086,3.8089,3.8092,3.8222,0,3.6668,3.6878,3.6946,3.7122,3.723,3.7277,3.738,3.7481,3.7547,3.765,3.7724,3.7841,3.7835,3.7884,3.7959,3.8041,3.8122,3.8033,3.8181,3.8185,3.8147,3.8274,3.8272,3.8389,3.8241,3.8244,3.8246,0,3.6832,3.6942,3.7128,3.726,3.7309,3.7399,3.7527,3.7625,3.774,3.7784,3.7873,3.7916,3.8042,3.8009,3.8185,3.8122,3.8188,3.8237,3.8243,3.8259,3.8219,3.8292,3.8429,3.8446,3.8274,3.8272,3.827,0,3.6875,3.7071,3.7207,3.7266,3.7423,3.7486,3.7555,3.7668,3.7743,3.7856,3.7906,3.8031,3.81,3.8197,3.8273,3.8242,3.8442,3.8415,3.8482,3.848,3.852,3.8517,3.8668,3.8564,3.8564,3.8563,3.8563,0,3.6998,3.7109,3.7229,3.7312,3.744,3.7518,3.7642,3.7714,3.7814,3.7914,3.7963,3.8055,3.815,3.8256,3.8317,3.8453,3.8484,3.8523,3.8537,3.8518,3.8513,3.8561,3.8554,3.8568,3.8567,3.8566,3.8565,0,3.7066,3.7151,3.7303,3.744,3.7477,3.7565,3.7683,3.7767,3.7836,3.7961,3.7995,3.8104,3.8231,3.8317,3.848,3.8521,3.8669,3.8682,3.8629,3.8636,3.8697,3.869,3.8884,3.8914,3.879,3.8791,3.8792,0,3.7138,3.7225,3.7372,3.7442,3.751,3.7622,3.77,3.7781,3.786,3.7999,3.8067,3.8197,3.8305,3.8506,3.8601,3.8726,3.8742,3.8802,3.8762,3.8739,3.8743,3.8736,3.8746,3.8808,3.8809,3.8809,3.881,0,3.7256,3.7294,3.7403,3.7528,3.7619,3.7722,3.7824,3.7879,3.7978,3.8065,3.8195,3.8279,3.8445,3.8574,3.8709,3.8781,3.8813,3.8822,3.8844,3.8825,3.879,3.8809,3.8645,3.8817,3.8816,3.8816,3.8816,3.8815,3.7329,3.7408,3.7524,3.7645,3.7731,3.7826,3.7911,3.7992,3.8101,3.8242,3.8284,3.842,3.8535,3.8719,3.8794,3.8902,3.8896,3.8928,3.8936,3.8942,3.8942,3.8773,3.8927,3.8927,3.8927,3.8927,3.8926,0,3.7449,3.7526,3.7636,3.7778,3.7874,3.7895,3.801,3.8089,3.8207,3.8312,3.8418,3.8568,3.8693,3.8798,3.8929,3.8995,3.9013,3.9027,3.9022,3.9038,3.894,3.8907,3.901,3.901,3.901,3.901,3.901,3.901,3.7522,3.7659,3.771,3.789,3.7968,3.81,3.8164,3.8252,3.8336,3.8502,3.8606,3.8673,3.8779,3.8918,3.9034,3.9062,3.9108,3.9118,3.9149,3.9055,3.9045,3.9036,3.9006,3.9128,3.9128,3.9239,3.924,3.9241]}]]